Change the Weather History Date:

Tuesday, January 1, 2013

  Actual Average (KBJC) Record (KBJC)
Temperature  
Mean Temperature 18 °F -  
Max Temperature 32 °F 45 °F 69 °F (1997)
Min Temperature 3 °F 25 °F 8 °F (1985)
Degree Days  
Heating Degree Days 48    
Moisture  
Dew Point 8 °F    
Average Humidity 74    
Maximum Humidity 94    
Minimum Humidity 37    
Precipitation  
Precipitation 0.00 in - - ()
Sea Level Pressure  
Sea Level Pressure 30.07 in    
Wind  
Wind Speed 1 mph (South)    
Max Wind Speed 8 mph    
Max Gust Speed -    
Visibility 9 miles    
Events      
Averages and records for this station are not official NWS values.
T = Trace of Precipitation, MM = Missing Value Source: NWS Daily Summary

Daily Weather History Graph

Daily Weather History Graph

Search for Another Location

Airport or City:

Trip Planner

Search our weather history database for the weather conditions in past years. The results will help you decide how hot, cold, wet, or windy it might be!

Date:

Astronomy

Jan. 01, 2013 Rise Set
Actual Time 7:22 AM MST 4:45 PM MST
Civil Twilight 6:51 AM MST 5:16 PM MST
Nautical Twilight 6:17 AM MST 5:50 PM MST
Astronomical Twilight 5:44 AM MST 6:23 PM MST
Moon 9:19 PM MST (1/1) 9:35 AM MST (1/1)
Length of Visible Light 10h 24m
Length of Day
9h 23m
Waning Gibbous, 83% of the Moon is Illuminated
Jan 1
Waning Gibbous
Jan 4
Last Quarter
Jan 11
New
Jan 18
First Quarter
Jan 26
Full

Hourly Weather History & Observations

Time (MST) Temp. Windchill Dew Point Humidity Pressure Visibility Wind Dir Wind Speed Gust Speed Precip Events Conditions
12:16 AM 5.9 °F - 3.2 °F 89% 30.00 in 7.0 mi Calm Calm - N/A   Clear
12:36 AM 5.7 °F - 3.7 °F 92% 30.00 in 7.0 mi Calm Calm - N/A   Clear
12:56 AM 3.4 °F - 0.5 °F 88% 30.01 in 7.0 mi Calm Calm - N/A   Clear
1:16 AM 5.7 °F - 3.6 °F 91% 30.01 in 7.0 mi Calm Calm - N/A   Clear
1:36 AM 5.0 °F - 2.8 °F 91% 30.02 in 10.0 mi Calm Calm - N/A   Clear
1:56 AM 4.8 °F - 2.3 °F 89% 30.03 in 7.0 mi Calm Calm - N/A   Clear
2:16 AM 4.1 °F - 1.6 °F 89% 30.04 in 10.0 mi Calm Calm - N/A   Scattered Clouds
2:36 AM 4.3 °F - 2.1 °F 91% 30.04 in 10.0 mi Calm Calm - N/A   Mostly Cloudy
3:16 AM 6.6 °F - 4.3 °F 90% 30.05 in 7.0 mi Calm Calm - N/A   Overcast
3:36 AM 8.4 °F - 6.6 °F 92% 30.06 in 7.0 mi Calm Calm - N/A   Overcast
3:56 AM 8.6 °F - 6.6 °F 92% 30.06 in 7.0 mi Calm Calm - N/A   Overcast
4:16 AM 7.9 °F 1.2 °F 5.7 °F 91% 30.06 in 7.0 mi SW 3.5 mph - N/A   Mostly Cloudy
4:36 AM 7.2 °F 0.3 °F 4.8 °F 90% 30.06 in 7.0 mi SSW 3.5 mph - N/A   Scattered Clouds
4:56 AM 8.2 °F - 6.3 °F 92% 30.06 in 7.0 mi Calm Calm - N/A   Scattered Clouds
5:16 AM 7.2 °F -1.5 °F 4.8 °F 90% 30.05 in 7.0 mi SSW 4.6 mph - N/A   Clear
5:36 AM 6.8 °F -3.5 °F 4.3 °F 89% 30.05 in 7.0 mi SSW 5.8 mph - N/A   Clear
5:56 AM 8.6 °F 2.0 °F 6.8 °F 92% 30.05 in 7.0 mi SSW 3.5 mph - N/A   Clear
6:16 AM 8.8 °F 0.4 °F 6.8 °F 92% 30.06 in 7.0 mi SW 4.6 mph - N/A   Clear
6:36 AM 9.3 °F 2.8 °F 7.5 °F 92% 30.06 in 7.0 mi SSW 3.5 mph - N/A   Clear
6:56 AM 10.0 °F - 8.1 °F 92% 30.07 in 10.0 mi Calm Calm - N/A   Clear
7:16 AM 10.9 °F - 9.1 °F 92% 30.07 in 10.0 mi Calm Calm - N/A   Scattered Clouds
7:36 AM 10.4 °F - 8.6 °F 92% 30.09 in 7.0 mi Calm Calm - N/A   Scattered Clouds
7:56 AM 10.8 °F - 9.0 °F 92% 30.10 in 7.0 mi Calm Calm - N/A   Clear
8:16 AM 11.5 °F - 9.7 °F 92% 30.11 in 7.0 mi Calm Calm - N/A   Clear
8:36 AM 12.7 °F - 11.1 °F 93% 30.12 in 7.0 mi Calm Calm - N/A   Clear
8:56 AM 14.2 °F - 12.7 °F 94% 30.12 in 7.0 mi Calm Calm - N/A   Clear
9:16 AM 15.8 °F - 14.4 °F 94% 30.13 in 7.0 mi Calm Calm - N/A   Clear
9:36 AM 16.3 °F - 14.0 °F 90% 30.14 in 7.0 mi Calm Calm - N/A   Clear
9:56 AM 17.1 °F - 14.2 °F 88% 30.13 in 10.0 mi Calm Calm - N/A   Clear
10:16 AM 17.2 °F - 14.4 °F 88% 30.14 in 10.0 mi Calm Calm - N/A   Clear
10:36 AM 20.3 °F - 16.2 °F 84% 30.13 in 10.0 mi Calm Calm - N/A   Clear
10:56 AM 22.6 °F - 16.9 °F 79% 30.13 in 10.0 mi Calm Calm - N/A   Clear
11:16 AM 23.9 °F 18.0 °F 16.3 °F 73% 30.11 in 10.0 mi South 4.6 mph - N/A   Clear
11:36 AM 26.2 °F 20.7 °F 16.5 °F 67% 30.11 in 10.0 mi SSE 4.6 mph - N/A   Clear
11:56 AM 28.4 °F 24.6 °F 14.4 °F 56% 30.09 in 10.0 mi South 3.5 mph - N/A   Clear
12:16 PM 29.1 °F - 12.7 °F 50% 30.09 in 10.0 mi Calm Calm - N/A   Clear
12:36 PM 30.7 °F 26.0 °F 12.6 °F 47% 30.08 in 10.0 mi SSE 4.6 mph - N/A   Clear
1:16 PM 31.1 °F 25.4 °F 11.8 °F 45% 30.06 in 10.0 mi SSE 5.8 mph - N/A   Clear
1:36 PM 30.9 °F 26.2 °F 10.4 °F 42% 30.06 in 10.0 mi SE 4.6 mph - N/A   Clear
2:16 PM 31.8 °F 28.5 °F 9.0 °F 38% 30.05 in 10.0 mi SE 3.5 mph - N/A   Clear
2:36 PM 32.0 °F - 8.2 °F 37% 30.05 in 10.0 mi Calm Calm - N/A   Clear
2:56 PM 32.0 °F 26.4 °F 8.4 °F 37% 30.05 in 10.0 mi ESE 5.8 mph - N/A   Clear
3:16 PM 31.6 °F 27.0 °F 8.1 °F 37% 30.05 in 10.0 mi East 4.6 mph - N/A   Clear
3:36 PM 31.5 °F 26.8 °F 10.2 °F 41% 30.05 in 10.0 mi ESE 4.6 mph - N/A   Clear
3:56 PM 30.4 °F 26.9 °F 11.1 °F 45% 30.05 in 10.0 mi East 3.5 mph - N/A   Clear
4:16 PM 28.0 °F 22.8 °F 12.0 °F 51% 30.05 in 10.0 mi ESE 4.6 mph - N/A   Clear
4:36 PM 25.3 °F 19.7 °F 11.1 °F 55% 30.04 in 10.0 mi SE 4.6 mph - N/A   Clear
4:56 PM 22.3 °F 13.0 °F 10.4 °F 60% 30.03 in 10.0 mi SE 8.1 mph - N/A   Clear
5:16 PM 24.3 °F 19.9 °F 7.9 °F 50% 30.03 in 10.0 mi South 3.5 mph - N/A   Clear
5:36 PM 23.7 °F 19.3 °F 4.6 °F 44% 30.03 in 10.0 mi South 3.5 mph - N/A   Clear
5:56 PM 22.3 °F 17.6 °F 5.0 °F 48% 30.03 in 10.0 mi SSW 3.5 mph - N/A   Clear
6:16 PM 21.4 °F 16.6 °F 4.8 °F 49% 30.03 in 10.0 mi SSW 3.5 mph - N/A   Clear
6:36 PM 19.4 °F - 3.2 °F 49% 30.03 in 10.0 mi Calm Calm - N/A   Clear
6:56 PM 16.9 °F - 3.9 °F 57% 30.05 in 10.0 mi Calm Calm - N/A   Clear
7:16 PM 13.6 °F - 4.3 °F 66% 30.06 in 10.0 mi Calm Calm - N/A   Clear
7:36 PM 12.9 °F - 3.7 °F 67% 30.06 in 10.0 mi Calm Calm - N/A   Clear
7:56 PM 12.7 °F - 2.8 °F 65% 30.07 in 10.0 mi Calm Calm - N/A   Clear
8:16 PM 10.8 °F - 3.4 °F 72% 30.08 in 10.0 mi Calm Calm - N/A   Clear
8:36 PM 10.4 °F 4.0 °F 4.1 °F 76% 30.09 in 10.0 mi SW 3.5 mph - N/A   Clear
8:56 PM 8.1 °F -0.5 °F 2.8 °F 79% 30.08 in 10.0 mi SW 4.6 mph - N/A   Clear
9:16 PM 7.7 °F - 2.1 °F 78% 30.07 in 10.0 mi Calm Calm - N/A   Clear
9:36 PM 7.9 °F - 1.2 °F 74% 30.07 in 10.0 mi Calm Calm - N/A   Clear
9:56 PM 5.5 °F - 1.8 °F 84% 30.08 in 10.0 mi Calm Calm - N/A   Clear
10:16 PM 6.3 °F - 2.5 °F 84% 30.09 in 10.0 mi Calm Calm - N/A   Clear
10:36 PM 6.1 °F - 1.9 °F 83% 30.10 in 10.0 mi Calm Calm - N/A   Mostly Cloudy
10:56 PM 7.9 °F - 4.3 °F 85% 30.10 in 10.0 mi Calm Calm - N/A   Overcast
11:16 PM 12.4 °F - 8.6 °F 85% 30.11 in 10.0 mi Calm Calm - N/A   Overcast
11:36 PM 15.1 °F - 10.2 °F 81% 30.11 in 10.0 mi Calm Calm - N/A   Overcast
11:56 PM 17.2 °F - 11.8 °F 79% 30.11 in 10.0 mi Calm Calm - N/A   Overcast